Location: Treviso
(45.6669°N, 12.2430°E)
Time: 07:48:25
(UTC+01:00)

ISS - Pass Details

Date: 14 January 2018
Orbit: 402 x 407 km, 51.6° (Epoch: 21 January)

Event Time Altitude Azimuth Distance (km) Brightness Sun altitude
Exits shadow 06:16:26 31° 247° (WSW) 734 -3.0 -15.7°
Maximum altitude 06:17:07 35° 218° (SW) 673 -3.0 -15.6°
Drops below altitude 10° 06:20:08 10° 151° (SSE) 1,459 -0.4 -15.0°
Sets 06:22:18 0° 142° (SE) 2,317 0.9 -14.7°
